Weather History for Berlin, NH

Change the Weather History Date:

Friday, April 12, 2013

  Actual Average Record
Temperature  
Mean Temperature 29 °F -  
Max Temperature 33 °F 48 °F 69 °F (2006)
Min Temperature 26 °F 22 °F 15 °F (1997)
Degree Days  
Heating Degree Days 36    
Moisture  
Dew Point 22 °F    
Average Humidity 72    
Maximum Humidity 86    
Minimum Humidity 44    
Precipitation  
Precipitation 0.34 in - - ()
Sea Level Pressure  
Sea Level Pressure 30.08 in    
Wind  
Wind Speed 5 mph (SE)    
Max Wind Speed 14 mph    
Max Gust Speed 20 mph    
Visibility 6 miles    
Events Rain , Snow    
Averages and records for this station are not official NWS values.
T = Trace of Precipitation, MM = Missing Value Source: NWS Daily Summary

Daily Weather History Graph

Daily Weather History Graph

Search for Another Location

Airport:

Trip Planner

Search our weather history database for the weather conditions in past years. The results will help you decide how hot, cold, wet, or windy it might be!

Date:

Astronomy

Apr. 12, 2013 Rise Set
Actual Time 6:05 AM EDT 7:26 PM EDT
Civil Twilight 5:35 AM EDT 7:56 PM EDT
Nautical Twilight 4:59 AM EDT 8:32 PM EDT
Astronomical Twilight 4:20 AM EDT 9:11 PM EDT
Moon 7:08 AM EDT (4/12) 10:00 PM EDT (4/12)
Length of Visible Light 14h 21m
Length of Day
13h 20m
Waxing Crescent, 5% of the Moon is Illuminated
Apr 12
Waxing Crescent
Apr 18
First Quarter
Apr 25
Full
May 2
Last Quarter
May 9
New

Hourly Weather History & Observations

Time (EDT) Temp. Windchill Dew Point Humidity Pressure Visibility Wind Dir Wind Speed Gust Speed Precip Events Conditions
12:52 AM 32.0 °F 28.7 °F 12.0 °F 44% 30.22 in 10.0 mi North 3.5 mph - N/A   Mostly Cloudy
1:52 AM 32.0 °F 28.7 °F 14.0 °F 48% 30.21 in 10.0 mi NW 3.5 mph - N/A   Mostly Cloudy
2:52 AM 32.0 °F - 14.0 °F 48% 30.19 in 10.0 mi Calm Calm - N/A   Overcast
3:52 AM 32.0 °F - 18.0 °F 56% 30.20 in 10.0 mi Calm Calm - N/A   Overcast
4:52 AM 32.0 °F - 15.1 °F 50% 30.22 in 10.0 mi Calm Calm - N/A   Overcast
5:52 AM 30.9 °F - 19.0 °F 61% 30.22 in 10.0 mi Calm Calm - N/A   Overcast
6:52 AM 30.9 °F 25.2 °F 15.1 °F 52% 30.23 in 10.0 mi Variable 5.8 mph - N/A   Overcast
7:04 AM 28.4 °F 19.1 °F 17.6 °F 64% 30.18 in 1.8 mi ESE 10.4 mph 17.3 mph 0.00 in Snow Light Snow
7:11 AM 28.4 °F 18.0 °F 19.4 °F 69% 30.18 in 0.8 mi SE 12.7 mph - 0.00 in Snow Light Snow
7:30 AM 26.6 °F 19.1 °F 21.2 °F 80% 30.18 in 0.5 mi SE 6.9 mph - 0.01 in Snow Snow
7:41 AM 26.6 °F 21.2 °F 23.0 °F 86% 30.19 in 1.0 mi SSE 4.6 mph - 0.01 in Snow Light Snow
7:49 AM 28.4 °F 22.2 °F 21.2 °F 74% 30.18 in 2.0 mi SSE 5.8 mph - 0.01 in Snow Light Snow
7:52 AM 28.0 °F 22.8 °F 21.9 °F 78% 30.22 in 3.0 mi SSE 4.6 mph - 0.01 in Snow Light Snow
8:03 AM 28.4 °F 23.3 °F 21.2 °F 74% 30.17 in 4.0 mi SE 4.6 mph - 0.00 in Snow Light Snow
8:52 AM 30.0 °F 26.5 °F 21.0 °F 69% 30.20 in 9.0 mi SE 3.5 mph - 0.00 in   Overcast
9:52 AM 28.9 °F 21.9 °F 21.9 °F 75% 30.16 in 6.0 mi SSE 6.9 mph - 0.01 in   Overcast
10:52 AM 30.9 °F 22.2 °F 19.9 °F 64% 30.15 in 10.0 mi SE 10.4 mph - 0.00 in   Overcast
11:52 AM 32.0 °F 22.1 °F 18.0 °F 56% 30.09 in 10.0 mi SE 13.8 mph 17.3 mph N/A   Overcast
12:52 PM 32.0 °F 23.0 °F 21.0 °F 64% 30.08 in 6.0 mi SSE 11.5 mph 19.6 mph 0.01 in   Overcast
1:18 PM 30.2 °F 21.9 °F 24.8 °F 80% 30.03 in 5.0 mi SSE 9.2 mph - 0.01 in Rain Light Freezing Rain
1:34 PM 30.2 °F 22.6 °F 24.8 °F 80% 30.01 in 2.5 mi SE 8.1 mph - 0.03 in Rain Light Freezing Rain
1:52 PM 30.9 °F 24.3 °F 25.0 °F 79% 30.05 in 2.5 mi SE 6.9 mph - 0.07 in Rain Light Freezing Rain
2:16 PM 30.2 °F - 24.8 °F 80% 29.98 in 1.2 mi Calm Calm - 0.06 in   Overcast
2:37 PM 30.2 °F 22.6 °F 24.8 °F 80% 29.97 in 1.8 mi SSE 8.1 mph - 0.10 in   Overcast
2:52 PM 30.0 °F 24.1 °F 26.1 °F 85% 30.04 in 2.0 mi South 5.8 mph - 0.13 in   Overcast
3:07 PM 30.2 °F 24.3 °F 26.6 °F 86% 29.99 in 3.0 mi SSE 5.8 mph - 0.02 in   Overcast
3:25 PM 30.2 °F 22.6 °F 26.6 °F 86% 29.99 in 2.5 mi SSE 8.1 mph - 0.03 in Snow Light Snow
3:43 PM 30.2 °F 23.4 °F 24.8 °F 80% 29.98 in 3.0 mi SE 6.9 mph - 0.05 in Snow Light Snow
3:52 PM 30.9 °F 22.2 °F 25.0 °F 79% 30.01 in 4.0 mi SSE 10.4 mph 16.1 mph 0.05 in Snow Light Snow
4:38 PM 30.2 °F 23.4 °F 24.8 °F 80% 29.94 in 8.0 mi SE 6.9 mph - 0.00 in   Overcast
4:52 PM 30.9 °F 22.2 °F 25.0 °F 79% 29.99 in 10.0 mi SE 10.4 mph - 0.00 in   Overcast
5:52 PM 32.0 °F 24.8 °F 25.0 °F 75% 29.97 in 10.0 mi ESE 8.1 mph - 0.00 in   Overcast
6:52 PM 32.0 °F 24.2 °F 25.0 °F 75% 29.96 in 8.0 mi SE 9.2 mph - 0.00 in   Overcast
7:52 PM 32.0 °F 24.8 °F 26.1 °F 79% 29.94 in 9.0 mi SE 8.1 mph - 0.00 in   Overcast
8:52 PM 32.0 °F 24.2 °F 25.0 °F 75% 29.94 in 10.0 mi SE 9.2 mph - 0.01 in   Overcast
10:52 PM 32.0 °F 28.7 °F 27.0 °F 82% 29.91 in 10.0 mi Variable 3.5 mph - 0.01 in   Overcast
11:52 PM 32.0 °F - 27.0 °F 82% 29.89 in 10.0 mi Calm Calm - 0.04 in   Overcast